Terminal Aerodrome Forecast
Issued by NWS

Home | Current Version | Previous Version | Graphics & Text | Print | Product List | Glossary On
Versions: 1 2 3 4 5 6 7 8 9 10 11 12 13 14 15 16
000
FTUS43 KUNR 290700 AAA
TAFGCC
TAF AMD
KGCC 290732Z 2908/3006 23006KT P6SM SKC
     FM290930 32015G25KT P6SM VCTS SCT080CB BKN150
     FM291400 32010KT P6SM SCT100
     FM292200 36010KT P6SM SCT250
     FM300300 11005KT P6SM SCT250=

USA.gov is the U.S. government's official web portal to all federal, state and local government web resources and services.